COSMOS 2491 DEB, 57567

Orbit data source: Space-Track

COSMOS 2491 DEB, 57567 is space debris in LEO originally from a launch on Wed, 25 Dec 2013 UTC launched from the Plesetsk Missile And Space Complex (PKMTR). Debris objects in space refer to the collection of defunct objects orbiting the Earth. Examples of debris include non-operational satellites, rocket bodies, and fragments generated from explosions, collisions, or faulty payload assembly.

Loading next visibility...
Identifier
57567, 2013-076BE
Orbit
LEO
Country
Flag of CISCIS
Related business
Manufacturer
TsNIIKhM
Mission
Spacecraft
Bus & Motor
Unknown
Mass
Unknown
Launch date (UTC)
2013-12-25 (12 years ago)
Launch vehicle
Unknown
Launch site
Plesetsk Missile And Space Complex (PKMTR)
Object type
Payload
Rocket body
Debris
Shape & HBR
Unknown shape, 0.1 m
Radar Cross Section
Small (<0.1 m²)

Expand to show TLE details & history
Last TLE update: 7 months ago

TLE from 7 months ago
0 COSMOS 2491 DEB
1 57567U 13076BE  25339.55095133  .00005765  00000-0  32529-1 0  9995
2 57567  82.4532 266.8620 0151050 331.9178  27.3821 12.58228994117978
Epoch: 2025-12-05T13:13Z
TLE epoch observation values (Epoch: 2025-12-05T13:13:22.194Z)
Latitude
-0.00004°
Longitude
-6.0719°
Altitude
1,328.62 km
Speed
7.241 km/s
True Right ascension
17h 47m 26s
True Declination
0° 00' 00"
Sunlit
Object was in daylight at epoch
Visualization orbit readout
Latitude
Unknown
Longitude
Unknown
Altitude
Unknown
Speed
Unknown
Apparent Right ascension
Unknown
Apparent Declination
Unknown
Sunlit
N/A
Visualization observer readout
Local Sidereal Time
21:38:46
Azimuth
Unknown
Elevation
Unknown
Doppler factor
Unknown
Orbital elements
Apogee altitude
1,545.499 km
Perigee altitude
1,309.688 km
Semi-major axis
7,805.73 km
Eccentricity
0.01511
Inclination
82.4532°
RAAN
266.862°
Arg. of periapsis
331.9178°
True anomaly
28.19172°
Mean anomaly
27.3821°
Eccentric anomaly
27.78554°
Mean motion
3.14719 °/min
Orbital period
114.39 mins
BSTAR
0.032529
Loading maneuver chart data...
Computing Atmospheric mass density...
Loading historical data...
Loading historical data...
Loading historical data...
Loading historical data...
Loading historical data...
Loading historical data...
Loading historical data...

Documentation

Showing up to 5 results
|